This is the latest recevied weather packets stored in our database for station/object KE5VT. If no packets are shown the sender has not sent any weather packets the latest 10 day(s).
| Time | Temp. | Humidity | Pressure | Rain* | Wind** | Luminosity | Snow |
|---|---|---|---|---|---|---|---|
| 1777912484 | 23.33° C | 39% | 1013 hPa | 0 mm | - | 733 W/m² | - |
| 1777912181 | 23.33° C | 34% | 1013.2 hPa | 0 mm | - | 730 W/m² | - |
| 1777911877 | 22.22° C | 36% | 1013.3 hPa | 0 mm | - | 719 W/m² | - |
| 1777911573 | 22.78° C | 37% | 1013.3 hPa | 0 mm | - | 677 W/m² | - |
| 1777911269 | 22.22° C | 37% | 1013.6 hPa | 0 mm | - | 703 W/m² | - |
| 1777910967 | 21.67° C | 40% | 1013.6 hPa | 0 mm | - | 710 W/m² | - |
| 1777910665 | 21.11° C | 40% | 1013.7 hPa | 0 mm | - | 702 W/m² | - |
| 1777910361 | 21.11° C | 38% | 1013.7 hPa | 0 mm | - | 699 W/m² | - |
| 1777910058 | 20.56° C | 40% | 1013.6 hPa | 0 mm | - | 688 W/m² | - |
| 1777909755 | 20.56° C | 42% | 1013.7 hPa | 0 mm | - | 680 W/m² | - |
| 1777909451 | 20° C | 42% | 1013.5 hPa | 0 mm | - | 672 W/m² | - |
| 1777909150 | 20.56° C | 42% | 1013.5 hPa | 0 mm | - | 523 W/m² | - |
| 1777908848 | 20° C | 43% | 1013.7 hPa | 0 mm | - | 339 W/m² | - |
| 1777908544 | 20° C | 47% | 1013.6 hPa | 0 mm | - | 104 W/m² | - |
| 1777908241 | 18.89° C | 45% | 1013.6 hPa | 0 mm | - | 57 W/m² | - |
| 1777907938 | 18.89° C | 45% | 1013.7 hPa | 0 mm | - | 60 W/m² | - |
| 1777907633 | 18.89° C | 48% | 1013.7 hPa | 0 mm | - | 57 W/m² | - |
| 1777907329 | 18.89° C | 51% | 1013.7 hPa | 0 mm | - | 71 W/m² | - |
| 1777907025 | 18.89° C | 51% | 1013.7 hPa | 0 mm | - | 52 W/m² | - |
| 1777906723 | 18.33° C | 51% | 1013.8 hPa | 0 mm | - | 70 W/m² | - |
| 1777906419 | 18.33° C | 54% | 1013.6 hPa | 0 mm | - | 58 W/m² | - |
| 1777906116 | 17.78° C | 52% | 1013.7 hPa | 0 mm | - | 105 W/m² | - |
| 1777905812 | 17.78° C | 56% | 1013.8 hPa | 0 mm | - | 43 W/m² | - |
| 1777905510 | 17.78° C | 55% | 1013.9 hPa | 0 mm | - | 74 W/m² | - |
| 1777905206 | 17.22° C | 56% | 1013.9 hPa | 0 mm | - | 46 W/m² | - |
* Rain latest hour (hover to see other rain measurements)
** Current wind speed in m/s (hover to see current wind gust speed)